Regional Weather Roundup
Issued by NWS Newport/Morehead, NC

Current Version | Previous Version | Text Only | Print | Product List | Glossary On
Versions: 1 2 3 4 5 6 7 8 9 10 11 12 13 14 15 16 17 18 19 20 21 22 23 24 25 26 27 28 29 30 31 32 33 34 35 36 37 38 39 40 41 42 43 44 45 46 47 48 49 50
000 ASUS42 KMHX 230210 RWRMHX WEATHER ROUNDUP FOR EASTERN NORTH CAROLINA NATIONAL WEATHER SERVICE NEWPORT/MOREHEAD CITY NC 1000 PM EDT FRI AUG 22 2014 NOTE: "FAIR" INDICATES FEW OR NO CLOUDS BELOW 12,000 FEET WITH NO SIGNIFICANT WEATHER AND/OR OBSTRUCTIONS TO VISIBILITY NCZ015>017-031-032-045>047-102-103-230300- NORTH COAST CITY SKY/WX TMP DP RH WIND PRES REMARKS EDENTON PTCLDY 76 72 87 NE3 29.95S ELIZABETH CITY PTCLDY 77 70 79 N6 29.95S KITTY HAWK PTCLDY 78 73 85 CALM 29.94S MANTEO MOCLDY 79 73 83 NE3 29.95S $$ NCZ045>047-081-094-103-104-230300- CENTRAL COAST CITY SKY/WX TMP DP RH WIND PRES REMARKS FRISCO MOCLDY 77 73 87 NE3 29.95R SWANQUARTER N/A 77 N/A N/A NE3 29.91S $$ NCZ095-097-098-100-101-230300- SOUTHERN COAST CITY SKY/WX TMP DP RH WIND PRES REMARKS BEAUFORT MOCLDY 84 76 76 NE3 29.94S CEDAR ISLAND N/A 84 N/A N/A N9 30.00R JACKSONVILLE CLOUDY 79 74 84 CALM 29.95R NEWPORT NOT AVBL PINEY ISLAND MOCLDY 84 74 71 N6 29.94S WILMINGTON CLOUDY 72 71 97 S7 29.96F $$ NCZ011>013-027>030-043-044-078>080-089-090>093-098-230300- COASTAL PLAIN CITY SKY/WX TMP DP RH WIND PRES REMARKS AHOSKIE PTCLDY 76 70 82 CALM 29.97R CLINTON NOT AVBL ELIZABETHTOWN PTCLDY 76 71 85 CALM 29.97R GOLDSBORO PTCLDY 76 75 98 CALM 29.94R GREENVILLE PTCLDY 77 73 88 CALM 29.98R HAVELOCK MOCLDY 83 75 77 CALM 29.95S KENANSVILLE PTCLDY 72 69 92 CALM 29.97R KINSTON NOT AVBL NEW BERN MOCLDY 80 75 84 CALM 29.96R RICHLANDS CLOUDY 77 72 83 SW5 29.96R ROANOKE RAPIDS NOT AVBL ROCKY MOUNT MOCLDY 76 73 91 CALM 29.96R WASHINGTON MOCLDY 77 72 85 CALM 29.96R WHITEVILLE MOCLDY 80 74 82 E5 29.96R $$ AMZ130-135-150-152-154-156-158-170-250-252-270-ANZ085-086-088-633-658-670-230300- MARINE OBSERVATIONS STATION/POSITION TIME TEMP WIND PRES WAVE SWELL AIR SEA DIR/SP/G HT/PER HT/PER (UTC) (F) (DEG/KT/KT) (MB) (FT/S) (FT/S) CHESAPEAKE LIGHT 0100 76 50/ 11/ 12 1014.9 BUOY 44014 0200 77 78 20/ 10/ 12 1013.3 2/ 7 2/ 7 DUCK 0200 79 81 10/ 8/ 9 1013.3 2E DUCK 0200 N/A 2/ 6 OREGON INLET 0200 78 85 30/ 7/ 9 1013.9 BUOY 44095 0200 80 N/A 2/ 8 20E OREGON INLET NOT AVBL HATTERAS CG 0200 80 84 40/ 5/ 8 1014.4 DIAMOND BUOY 0200 79 10/ 12/ 14 1013.4 2/ 7 2/ 7 CAPE LOOKOUT 0100 83 250/ 7/ 8 1013.6 BEAUFORT LAB 0200 84 83 30/ 3/ 4 1013.7 30 SE NEW RIVER 0200 84 83 270/ 14/ 17 1013.6 2/10 5 SE WRIGHTSVILL 0200 75 83 230/ 14/ 16 N/A BUOY 41002 0129 82 82 250/ 12/ 12 1016.1 3/ 4 2/ 9 BUOY 41004 0200 85 85 200/ 10/ 12 1014.1 2/ 9 2/ 9 $$

USA.gov is the U.S. government's official web portal to all federal, state and local government web resources and services.